Location: Lassen National Park
(40.5158°N, 121.4639°W)
Time: 12:43:40
(UTC-07:00)

N. Korean satellite - Visible Passes

Search period start: 20 March 2019 00:00
Search period end: 30 March 2019 00:00
Orbit: 455 x 510 km, 97.2° (Epoch: 19 March)

Date Brightness Start Highest point End Pass type
(mag) Time Alt. Az. Time Alt. Az. Time Alt. Az.
20 Mar 9.8 06:24:26 10° NE 06:26:46 16° E 06:29:06 10° SE visible
24 Mar 10.0 06:18:51 10° ENE 06:20:52 14° E 06:22:53 10° SE visible
28 Mar 10.1 06:13:20 10° ENE 06:14:56 12° E 06:16:32 10° ESE visible
